Date String (YYYY-MM-DD hh:mm:ss) UTC,Instrument flags,absolute air pressure of the measurement (hPa),sample flow rate (lpm),inlet stack bypass flow (lpm),air temperature of the measurement (°C),ambient temperature measured by the external sensor (°C),aerosol sample conditioner tube jacket temperature (°C),OPC LED temperature (°C),internal box temperature (°C),relative humidity of the measurement (%),span deviation,mass concentration of particles derived from Lorenz-Mie calculation of OPC scattering (μg/m³),mass concentration of particles derived from Lorenz-Mie calculation of OPC scattering (μg/m³),mass concentration of particles derived from Lorenz-Mie calculation of OPC scattering (μg/m³)
DateTimeUTC,F1_M11,P_M11,Q1_M11,Q2_M11,T1_M11,T2_M11,T3_M11,T4_M11,T5_M11,U1_M11,ZSPAN_M11,X2_M11,X0_M11,X1_M11
2023-10-12 15:00:00,SystemResetWarning,0813.8,4.99,000.00,027.8,026.3,000.0,036.2,029.4,21.6,0000.0,0002.11,0003.14,0001.75
2023-10-12 15:01:00,SystemResetWarning,0813.8,5.01,000.00,027.8,026.3,000.0,036.2,029.5,21.6,0000.0,0002.11,0003.09,0001.75
2023-10-12 15:02:00,SystemResetWarning,0813.9,5.01,000.00,027.8,026.3,000.0,036.2,029.5,21.9,0000.0,0002.11,0003.69,0001.74
2023-10-12 15:03:00,SystemResetWarning,0813.9,5.00,000.00,027.8,026.3,000.0,036.2,029.5,21.6,0000.0,0002.10,0004.62,0001.73
2023-10-12 15:04:00,SystemResetWarning,0813.9,4.99,000.00,027.8,026.3,000.0,036.2,029.5,21.7,0000.0,0002.07,0004.52,0001.72
2023-10-12 15:05:00,SystemResetWarning,0813.9,5.00,000.00,027.8,026.3,000.0,036.3,029.5,21.9,0000.0,0002.07,0004.60,0001.71
2023-10-12 15:06:00,SystemResetWarning,0813.9,5.00,000.00,027.8,026.3,000.0,036.3,029.5,21.8,0000.0,0002.07,0004.66,0001.70
2023-10-12 15:07:00,SystemResetWarning,0813.9,5.00,000.00,027.8,026.4,000.0,036.3,029.5,21.4,0000.0,0002.00,0004.50,0001.67
2023-10-12 15:08:00,SystemResetWarning,0813.9,5.00,000.00,027.8,026.4,000.0,036.3,029.5,21.6,0000.0,0001.95,0004.38,0001.65
2023-10-12 15:09:00,SystemResetWarning,0813.9,5.01,000.00,027.8,026.4,000.0,036.3,029.5,21.4,0000.0,0001.94,0004.36,0001.64
2023-10-12 15:10:00,SystemResetWarning,0813.8,5.01,000.00,027.8,026.4,000.0,036.3,029.5,20.6,0000.0,0001.94,0004.40,0001.61
2023-10-12 15:11:00,SystemResetWarning,0813.8,4.99,000.00,027.9,026.4,000.0,036.3,029.5,20.5,0000.0,0001.98,0004.53,0001.61
2023-10-12 15:12:00,SystemResetWarning,0813.7,4.99,000.00,027.9,026.4,000.0,036.3,029.5,20.3,0000.0,0001.97,0004.47,0001.59
2023-10-12 15:13:00,SystemResetWarning,0813.7,4.99,000.00,027.9,026.4,000.0,036.3,029.5,20.4,0000.0,0001.96,0004.37,0001.60
2023-10-12 15:14:00,SystemResetWarning,0813.8,5.00,000.00,027.9,026.4,000.0,036.3,029.5,21.8,0000.0,0001.97,0002.83,0001.61
2023-10-12 15:15:00,SystemResetWarning,0813.8,5.01,000.00,027.9,026.5,000.0,036.3,029.5,22.6,0000.0,0001.94,0002.77,0001.59
2023-10-12 15:16:00,SystemResetWarning,0813.8,5.00,000.00,027.9,026.5,000.0,036.3,029.6,23.0,0000.0,0001.91,0002.68,0001.58
2023-10-12 15:17:00,SystemResetWarning,0813.7,5.01,000.00,027.9,026.5,000.0,036.3,029.6,23.9,0000.0,0001.89,0002.80,0001.58
2023-10-12 15:18:00,SystemResetWarning,0813.8,5.00,000.00,027.9,026.5,000.0,036.3,029.6,24.2,0000.0,0001.94,0003.06,0001.60
2023-10-12 15:19:00,SystemResetWarning,0813.9,4.99,000.00,027.9,026.5,000.0,036.3,029.6,23.9,0000.0,0001.98,0003.15,0001.63
2023-10-12 15:20:00,SystemResetWarning,0813.9,4.99,000.00,027.9,026.5,000.0,036.3,029.6,23.9,0000.0,0002.00,0003.22,0001.65
2023-10-12 15:21:00,SystemResetWarning,0813.9,5.00,000.00,027.9,026.5,000.0,036.3,029.6,23.5,0000.0,0002.04,0003.30,0001.68
2023-10-12 15:22:00,SystemResetWarning,0813.9,5.01,000.00,027.9,026.5,000.0,036.3,029.6,22.0,0000.0,0002.04,0003.25,0001.70
2023-10-12 15:23:00,SystemResetWarning,0813.9,5.00,000.00,027.9,026.5,000.0,036.3,029.6,22.0,0000.0,0002.05,0003.17,0001.73
2023-10-12 15:24:00,SystemResetWarning,0813.9,4.99,000.00,027.9,026.5,000.0,036.3,029.6,22.1,0000.0,0002.04,0003.16,0001.73
2023-10-12 15:25:00,SystemResetWarning,0813.9,5.00,000.00,027.9,026.5,000.0,036.4,029.6,22.0,0000.0,0002.03,0003.17,0001.71
2023-10-12 15:26:00,SystemResetWarning,0813.9,5.00,000.00,028.0,026.5,000.0,036.4,029.6,21.1,0000.0,0002.04,0003.25,0001.69
2023-10-12 15:27:00,SystemResetWarning,0813.9,5.01,000.00,028.0,026.5,000.0,036.4,029.7,20.8,0000.0,0002.06,0003.30,0001.69
2023-10-12 15:28:00,SystemResetWarning,0813.9,5.00,000.00,028.0,026.5,000.0,036.4,029.7,21.1,0000.0,0002.04,0003.15,0001.67
2023-10-12 15:29:00,SystemResetWarning,0813.8,5.01,000.00,028.0,026.5,000.0,036.4,029.7,20.9,0000.0,0001.99,0002.81,0001.64
2023-10-12 15:30:00,SystemResetWarning,0813.9,5.00,000.00,028.0,026.6,000.0,036.4,029.7,21.0,0000.0,0001.96,0002.77,0001.61
2023-10-12 15:31:00,SystemResetWarning,0813.9,4.99,000.00,028.0,026.6,000.0,036.4,029.7,21.3,0000.0,0001.90,0002.63,0001.57
2023-10-12 15:32:00,SystemResetWarning,0813.9,4.99,000.00,028.0,026.6,000.0,036.4,029.7,20.9,0000.0,0001.83,0002.54,0001.52
2023-10-12 15:33:00,SystemResetWarning,0813.9,4.99,000.00,028.0,026.6,000.0,036.4,029.7,20.7,0000.0,0001.78,0002.47,0001.48
2023-10-12 15:34:00,SystemResetWarning,0813.9,5.01,000.00,028.0,026.6,000.0,036.4,029.7,20.9,0000.0,0001.72,0002.40,0001.44
2023-10-12 15:35:00,SystemResetWarning,0813.9,5.01,000.00,028.0,026.6,000.0,036.4,029.7,21.2,0000.0,0001.70,0002.36,0001.42
2023-10-12 15:36:00,SystemResetWarning,0813.8,5.01,000.00,028.0,026.6,000.0,036.4,029.7,21.2,0000.0,0001.67,0002.28,0001.41
2023-10-12 15:37:00,SystemResetWarning,0813.8,5.00,000.00,028.1,026.7,000.0,036.5,029.7,21.6,0000.0,0001.63,0002.19,0001.40
2023-10-12 15:38:00,SystemResetWarning,0813.8,5.00,000.00,028.1,026.7,000.0,036.5,029.8,21.7,0000.0,0001.60,0002.13,0001.39
2023-10-12 15:39:00,SystemResetWarning,0813.8,4.99,000.00,028.1,026.7,000.0,036.5,029.8,21.8,0000.0,0001.59,0002.12,0001.37
2023-10-12 15:40:00,SystemResetWarning,0813.7,5.00,000.00,028.1,026.7,000.0,036.5,029.8,22.2,0000.0,0001.56,0002.04,0001.36
2023-10-12 15:41:00,SystemResetWarning,0813.7,4.99,000.00,028.1,026.7,000.0,036.5,029.8,22.4,0000.0,0001.53,0002.00,0001.35
2023-10-12 15:42:00,SystemResetWarning,0813.8,5.00,000.00,028.1,026.7,000.0,036.5,029.8,22.5,0000.0,0001.52,0001.99,0001.33
2023-10-12 15:43:00,SystemResetWarning,0813.7,5.00,000.00,028.1,026.8,000.0,036.5,029.8,22.8,0000.0,0001.51,0001.96,0001.33
2023-10-12 15:44:00,SystemResetWarning,0813.7,5.00,000.00,028.1,026.8,000.0,036.5,029.8,22.6,0000.0,0001.48,0001.94,0001.32
2023-10-12 15:45:00,SystemResetWarning,0813.7,5.00,000.00,028.2,026.8,000.0,036.5,029.9,22.7,0000.0,0001.49,0001.99,0001.31
2023-10-12 15:46:00,SystemResetWarning,0813.7,5.00,000.00,028.2,026.8,000.0,036.6,029.8,22.2,0000.0,0001.53,0002.15,0001.30
2023-10-12 15:47:00,SystemResetWarning,0813.7,5.01,000.00,028.2,026.8,000.0,036.6,029.8,21.9,0000.0,0001.54,0002.28,0001.30
2023-10-12 15:48:00,SystemResetWarning,0813.7,5.00,000.00,028.2,026.8,000.0,036.6,029.9,21.7,0000.0,0001.54,0002.29,0001.29
2023-10-12 15:49:00,SystemResetWarning,0813.7,5.00,000.00,028.2,026.9,000.0,036.6,029.9,22.0,0000.0,0001.56,0002.44,0001.29
2023-10-12 15:50:00,SystemResetWarning,0813.7,5.00,000.00,028.2,026.9,000.0,036.6,029.9,22.0,0000.0,0001.55,0002.50,0001.29
2023-10-12 15:51:00,SystemResetWarning,0813.6,4.99,000.00,028.2,026.9,000.0,036.6,029.9,21.6,0000.0,0001.58,0002.53,0001.31
2023-10-12 15:52:00,SystemResetWarning,0813.6,5.00,000.00,028.2,026.9,000.0,036.6,029.9,20.9,0000.0,0001.62,0002.58,0001.34
2023-10-12 15:53:00,SystemResetWarning,0813.7,5.01,000.00,028.2,026.9,000.0,036.6,029.9,20.5,0000.0,0001.64,0002.84,0001.37
2023-10-12 15:54:00,SystemResetWarning,0813.7,5.00,000.00,028.3,026.9,000.0,036.7,029.9,20.8,0000.0,0001.70,0003.29,0001.40
2023-10-12 15:55:00,SystemResetWarning,0813.6,5.00,000.00,028.3,027.0,000.0,036.7,029.9,20.6,0000.0,0001.77,0003.46,0001.45
2023-10-12 15:56:00,SystemResetWarning,0813.7,4.99,000.00,028.3,027.0,000.0,036.7,030.0,20.3,0000.0,0001.81,0003.45,0001.49
2023-10-12 15:57:00,SystemResetWarning,0813.7,5.00,000.00,028.3,027.0,000.0,036.7,030.0,19.9,0000.0,0001.83,0003.47,0001.51
2023-10-12 15:58:00,SystemResetWarning,0813.7,5.00,000.00,028.3,027.0,000.0,036.7,030.0,20.8,0000.0,0001.87,0003.78,0001.53
2023-10-12 15:59:00,SystemResetWarning,0813.7,5.00,000.00,028.3,027.0,000.0,036.7,030.0,21.2,0000.0,0001.93,0004.37,0001.54
